This demonstration page uses our WeatherBlox Daily Observations layout. Learn more.

Hourly Observations for June 14, 2019

Temp ( °F °C ) Dew Point ( °F °C ) Humidity (%) Winds ( mph kmh ) Pressure ( in mb ) Visibility ( mi km ) Precip ( " mm )
12:15 am 00:15 Clear 66 19.1 52 11.2 60 60 SSE 15 24 29.8 1009 10 16.09344 0 0
12:35 am 00:35 Clear with Thunderstorms 66 19 52 11.2 61 61 SSE 14 22 29.8 1009 10 16.09344 0 0
12:55 am 00:55 Mostly Cloudy 66 18.7 53 11.4 63 63 SSE 13 20 29.8 1009 10 16.09344 0 0
1:15 am 01:15 Cloudy 65 18.2 54 12.1 68 68 SW 7 11 29.88 1012 10 16.09344 0 0
1:35 am 01:35 Cloudy with Rain 62 16.8 56 13.3 80 80 NW 13 20 29.91 1013 10 16.09344 0.03 0.762
1:55 am 01:55 Cloudy with Nearby Thunderstorms 61 16.1 57 13.9 87 87 Calm 29.91 1013 7 11.265408 0.07 1.778
2:15 am 02:15 Cloudy with Rain 61 16 58 14.2 89 89 SE 6 9 29.85 1011 7 11.265408 0.04 1.016
2:35 am 02:35 Cloudy with Light Rain 60 15.6 58 14.7 94 94 SE 12 19 29.83 1010 10 16.09344 0.06 1.524
2:55 am 02:55 Mostly Cloudy with Nearby Thunderstorms 60 15.5 58 14.5 94 94 SE 14 22 29.8 1009 10 16.09344 0.06 1.524
3:15 am 03:15 Partly Cloudy 59 15.2 58 14.5 96 96 SE 17 28 29.77 1008 10 16.09344 0 0
3:35 am 03:35 Clear 59 15 58 14.3 96 96 SSE 18 30 29.74 1007 10 16.09344 0 0
3:55 am 03:55 Clear 60 15.3 57 14 92 92 SSE 14 22 29.74 1007 10 16.09344 0 0
4:15 am 04:15 Clear 60 15.4 57 13.9 91 91 SSE 16 26 29.74 1007 10 16.09344 0 0
4:35 am 04:35 Clear 59 15 57 14 94 94 SSE 12 19 29.74 1007 10 16.09344 0 0
4:55 am 04:55 Clear 59 15 57 14 94 94 SSE 12 19 29.74 1007 10 16.09344 0 0
5:15 am 05:15 Clear 58 14.7 57 14 96 96 S 7 11 29.74 1007 10 16.09344 0 0
5:35 am 05:35 Clear 58 14.7 57 14.1 96 96 S 7 11 29.74 1007 10 16.09344 0 0
5:55 am 05:55 Clear 59 15 57 14.1 94 94 SSE 10 17 29.74 1007 10 16.09344 0 0
6:15 am 06:15 Sunny 59 15 57 14 94 94 SSE 9 15 29.74 1007 10 16.09344 0 0
6:35 am 06:35 Sunny 58 14.7 57 14 96 96 SSE 8 13 29.74 1007 10 16.09344 0 0
6:55 am 06:55 Sunny 58 14.6 57 14 96 96 SSE 8 13 29.74 1007 10 16.09344 0 0
7:15 am 07:15 Sunny 59 14.9 57 14.1 95 95 SSE 9 15 29.74 1007 10 16.09344 0 0
7:35 am 07:35 Sunny 59 15.1 58 14.2 94 94 SSE 8 13 29.74 1007 10 16.09344 0 0
7:55 am 07:55 Sunny 61 16 58 14.5 91 91 SSE 10 17 29.74 1007 10 16.09344 0 0
8:15 am 08:15 Sunny 62 16.6 58 14.7 89 89 SSE 12 19 29.74 1007 10 16.09344 0 0
8:35 am 08:35 Sunny 63 17.2 59 14.9 86 86 S 13 20 29.74 1007 10 16.09344 0 0
8:55 am 08:55 Sunny 64 17.8 59 15 84 84 S 14 22 29.71 1006 10 16.09344 0 0
9:15 am 09:15 Sunny 65 18.6 60 15.5 82 82 S 15 24 29.71 1006 10 16.09344 0 0
9:35 am 09:35 Sunny 67 19.4 60 15.8 80 80 SSW 13 20 29.71 1006 10 16.09344 0 0
9:55 am 09:55 Sunny 68 20 61 16 78 78 S 15 24 29.71 1006 10 16.09344 0 0
10:15 am 10:15 Sunny 69 20.6 62 16.4 77 77 S 15 24 29.71 1006 10 16.09344 0 0
10:35 am 10:35 Sunny 70 21.2 62 16.8 76 76 SSW 12 19 29.68 1005 10 16.09344 0 0
10:55 am 10:55 Sunny 71 21.9 63 17.2 75 75 SSW 10 17 29.68 1005 10 16.09344 0 0
11:15 am 11:15 Sunny 73 22.8 64 17.8 74 74 SSW 10 17 29.68 1005 10 16.09344 0 0
11:35 am 11:35 Sunny 74 23.2 64 17.7 71 71 SSW 12 19 29.68 1005 10 16.09344 0 0
11:55 am 11:55 Sunny 75 23.9 64 18 70 70 SW 14 22 29.65 1004 10 16.09344 0 0
12:15 pm 12:15 Sunny 76 24.5 65 18.1 68 68 SSW 13 20 29.62 1003 10 16.09344 0 0
12:35 pm 12:35 Sunny 77 25.1 65 18.2 66 66 SSW 12 19 29.62 1003 10 16.09344 0 0
12:55 pm 12:55 Sunny 78 25.6 66 18.7 66 66 SW 14 22 29.62 1003 10 16.09344 0 0
1:15 pm 13:15 Sunny 79 26.2 66 18.7 63 63 SW 12 19 29.59 1002 10 16.09344 0 0
1:35 pm 13:35 Sunny 81 27.1 66 18.7 60 60 SW 13 20 29.59 1002 10 16.09344 0 0
1:55 pm 13:55 Sunny 81 27.4 64 18 57 57 WSW 10 17 29.59 1002 10 16.09344 0 0
2:15 pm 14:15 Partly Cloudy 82 27.7 64 17.8 55 55 WSW 12 19 29.59 1002 10 16.09344 0 0
2:35 pm 14:35 Partly Cloudy 84 28.7 64 17.5 51 51 W 15 24 29.56 1001 10 16.09344 0 0
2:55 pm 14:55 Sunny 83 28.5 63 17 50 50 W 10 17 29.56 1001 10 16.09344 0 0
3:15 pm 15:15 Sunny 83 28.6 63 17 49 49 WSW 10 17 29.56 1001 10 16.09344 0 0
3:35 pm 15:35 Sunny 83 28.6 62 16.7 49 49 WSW 6 9 29.53 1000 10 16.09344 0 0
3:55 pm 15:55 Sunny 83 28.4 62 16.4 48 48 W 8 13 29.53 1000 10 16.09344 0 0
4:15 pm 16:15 Sunny 83 28.6 60 15.7 46 46 WNW 9 15 29.56 1001 10 16.09344 0 0
4:35 pm 16:35 Sunny 83 28.1 61 16.2 48 48 WNW 9 15 29.56 1001 10 16.09344 0 0
4:55 pm 16:55 Sunny 83 28.6 61 15.9 46 46 WNW 9 15 29.56 1001 10 16.09344 0 0
5:15 pm 17:15 Sunny 83 28.5 63 17.1 50 50 W 7 11 29.56 1001 10 16.09344 0 0
5:35 pm 17:35 Sunny 84 28.8 62 16.6 48 48 WNW 7 11 29.53 1000 10 16.09344 0 0
5:55 pm 17:55 Sunny 84 29.1 62 16.6 47 47 WNW 6 9 29.53 1000 10 16.09344 0 0
6:15 pm 18:15 Sunny 85 29.3 62 16.8 47 47 W 5 7 29.53 1000 10 16.09344 0 0
6:35 pm 18:35 Sunny 85 29.2 61 16.2 45 45 Calm 29.53 1000 10 16.09344 0 0
6:55 pm 18:55 Sunny 85 29.5 62 16.9 47 47 WNW 6 9 29.53 1000 10 16.09344 0 0
7:15 pm 19:15 Sunny 85 29.2 62 16.6 47 47 NW 5 7 29.53 1000 10 16.09344 0 0
7:35 pm 19:35 Sunny 84 28.9 59 14.9 42 42 NNW 6 9 29.53 1000 10 16.09344 0 0
7:55 pm 19:55 Sunny 81 27.4 58 14.2 44 44 NNW 6 9 29.56 1001 10 16.09344 0 0
8:15 pm 20:15 Sunny 79 26.1 62 16.4 55 55 Calm 29.56 1001 10 16.09344 0 0
8:35 pm 20:35 Sunny 77 24.8 64 17.5 64 64 NNE 3 6 29.56 1001 10 16.09344 0 0
8:55 pm 20:55 Sunny 77 25 63 17.3 62 62 Calm 29.56 1001 10 16.09344 0 0
9:15 pm 21:15 Clear 75 24.1 63 17.3 66 66 Calm 29.59 1002 10 16.09344 0 0
9:35 pm 21:35 Clear 72 22.3 64 17.8 76 76 NNE 3 6 29.62 1003 10 16.09344 0 0
9:55 pm 21:55 Clear 73 22.7 64 17.8 74 74 N 7 11 29.62 1003 10 16.09344 0 0
10:15 pm 22:15 Clear 73 22.8 64 17.8 74 74 Calm 29.62 1003 10 16.09344 0 0
10:35 pm 22:35 Partly Cloudy 72 22.1 65 18.3 79 79 Calm 29.62 1003 10 16.09344 0 0
10:55 pm 22:55 Partly Cloudy 70 21.3 65 18.5 84 84 Calm 29.59 1002 10 16.09344 0 0
11:15 pm 23:15 Clear 71 21.5 65 18.2 82 82 Calm 29.59 1002 10 16.09344 0 0
11:35 pm 23:35 Clear 71 21.4 65 18.4 83 83 Calm 29.59 1002 10 16.09344 0 0
11:55 pm 23:55 Partly Cloudy 69 20.6 65 18.5 88 88 N 3 6 29.59 1002 10 16.09344 0 0

Powered by AerisWeather